Location: G�ppingen
(48.7089°N, 9.6563°E)
Time: 16:21:41
(UTC+02:00)

LilacSat-2 - Pass Details

Date: 27 March 2019
Orbit: 513 x 536 km, 97.5° (Epoch: 25 April)

Event Time Altitude Azimuth Distance (km) Brightness Sun altitude
Rises 05:14:19 0° 30° (NNE) 2,642 ? -10.0°
Reaches altitude 10° 05:17:13 10° 55° (NE) 1,747 ? -9.5°
Maximum altitude 05:19:24 15° 90° (E) 1,467 ? -9.2°
Drops below altitude 10° 05:21:33 10° 126° (SE) 1,737 ? -8.8°
Sets 05:24:25 0° 150° (SSE) 2,618 ? -8.4°
